Location: Unspecified
(42.3650°N, 71.1030°W)
Time: 10:02:44
(UTC+00:00)

Tiros 1 - Pass Details

Date: 28 June 2024
Orbit: 624 x 656 km, 48.4° (Epoch: 20 July)

Event Time Altitude Azimuth Distance (km) Brightness Sun altitude
Rises 05:56:02 0° 289° (WNW) 2,904 10.5 -22.5°
Reaches altitude 10° 05:58:28 10° 297° (WNW) 1,999 9.8 -22.4°
Maximum altitude 06:02:49 41° 8° (N) 917 8.4 -22.1°
Drops below altitude 10° 06:07:11 10° 79° (E) 2,010 10.0 -21.9°
Sets 06:09:38 0° 87° (E) 2,923 10.8 -21.7°
